Regional Weather Roundup
Issued by NWS

Home | Current Version | Previous Version | Text Only | Print | Product List | Glossary Off
Versions: 1 2 3 4 5 6 7 8 9 10 11 12 13 14 15 16 17 18 19 20 21 22 23 24 25 26 27 28 29 30 31 32 33 34 35 36 37 38 39 40 41 42 43 44 45 46 47 48 49 50

000
ASUS43 KMPX 010010
RWRMN
WEATHER ROUNDUP FOR MINNESOTA
NATIONAL WEATHER SERVICE TWIN CITIES/CHANHASSEN MN
700 PM CDT SUN AUG 31 2014


NOTE: "FAIR" INDICATES FEW OR NO CLOUDS BELOW 12,000 FEET WITH NO
SIGNIFICANT WEATHER AND/OR OBSTRUCTIONS TO VISIBILITY. N/A MEANS
CURRENT SKY AND/OR WEATHER CONDITIONS ARE NOT AVAILABLE.

MNZ060>063-068>070-010100-
   Twin Cities Metro

CITY           SKY/WX    TMP DP  RH WIND       PRES   REMARKS
TWIN CITIES    CLOUDY    80  68  66 SW13      29.65F
6HR MIN TEMP:  80; 6HR MAX TEMP:  85; 6HR PCP: TRACE;

ST PAUL        CLOUDY    80  70  71 SW7       29.65F
CRYSTAL        MOCLDY    80  66  62 SW15      29.63F
BLAINE         MOCLDY    81  68  65 S13G18    29.64F
LAKEVILLE      CLOUDY    75  70  83 S6        29.66F
EDEN PRAIRIE   MOCLDY    79  68  69 SW13G21   29.64F
6HR MIN TEMP:  78; 6HR MAX TEMP:  86; 6HR PCP: TRACE;

SOUTH ST PAUL  CLOUDY    81  69  66 SW9       29.65F
LAKE ELMO      MOCLDY    79  72  78 SW9       29.66F
$$
MNZ001>005-007-008-013>017-022>024-027-028-010100-
   Northwest Minnesota

CITY           SKY/WX    TMP DP  RH WIND       PRES   REMARKS
BEMIDJI        MOCLDY    67  62  83 W8        29.62F
HALLOCK        CLOUDY    66  63  88 NW5       29.59R
ROSEAU         PTSUNNY   66  61  82 W10G17    29.57R
WARROAD        CLOUDY    64  61  88 SW9       29.56S
THIEF RVR FALL CLOUDY    70  63  78 W8        29.61S
CROOKSTON      CLOUDY    70  63  78 W7        29.61S
FOSSTON        CLOUDY    66  63  88 W7        29.62F
DETROIT LAKES  CLOUDY    68  63  83 W7        29.63F
MOORHEAD       CLOUDY    72  66  83 W3        29.62F
PARK RAPIDS    MOCLDY    69  63  81 W10       29.63F
MAHNOMEN       MOCLDY    67  62  84 W6        29.62F
$$
MNZ006-009>011-018-025>026-010100-
   North Central Minnesota

CITY           SKY/WX    TMP DP  RH WIND       PRES   REMARKS
BAUDETTE       CLOUDY    66  63  90 SW8       29.56S
FLAG ISLAND    LGT RAIN  66  63  88 SW13G23   29.52R
INTL FALLS     LGT RAIN  67  65  93 W12G23    29.57R
6HR MIN TEMP:  66; 6HR MAX TEMP:  70; 6HR PCP:  0.22;

WASKISH        MOCLDY    66  64  94 SW13      29.60R
BIG FORK       MOCLDY    72  66  83 SW7       29.61R
LONGVILLE      MOCLDY    72  63  73 W8G17     29.63S
GRAND RAPIDS   MOCLDY    70  66  88 W3        29.61F
CRANE LAKE     PTCLDY    64  61  88 SE6       29.61F
ORR            PTCLDY    68  61  77 SE7       29.58S
COOK           PTCLDY    68  63  83 SE9       29.62S
WALKER         FAIR      67  62  85 W8        29.63F
$$
MNZ012-019>021-037-010100-
   Northeast Minnesota

CITY           SKY/WX    TMP DP  RH WIND       PRES   REMARKS
DULUTH         MOCLDY    68  62  81 E12       29.65F THUNDER
6HR MIN TEMP:  65; 6HR MAX TEMP:  69; 6HR PCP: TRACE;

ELY            MOCLDY    64  57  77 E6        29.66F
HIBBING        PTCLDY    69  63  81 SE9       29.62F
EVELETH        MOCLDY    66  61  82 SE6       29.65F
DULUTH HARBOR  TSTM      63  61  94 NE23      29.63F
TWO HARBORS    MOCLDY    63  57  82 NE5       29.64F
SILVER BAY     MOCLDY    59  59 100 NE8       29.66F
GRAND MARAIS     N/A     63  56  78 NE13G23   29.70F
G MARAIS ARPRT CLOUDY    59  54  82 E10       29.74F
$$
MNZ029>031-032-039>041-046>048-054>057-064-010100-
   West Central Minnesota

CITY           SKY/WX    TMP DP  RH WIND       PRES   REMARKS
FERGUS FALLS   CLOUDY    70  63  78 W8        29.62F
WHEATON        CLOUDY    66  64  94 SW5       29.66S
MORRIS         CLOUDY    72  64  78 W5        29.66R
ALEXANDRIA     MOCLDY    71  63  75 W10       29.66F
ELBOW LAKE     FAIR      69  63  80 NW7       29.62F
WADENA         MOCLDY    70  63  78 CALM      29.63F
GLENWOOD       MOCLDY    72  63  73 W8        29.67R
APPLETON       RAIN      73  64  73 W7        29.67R
BENSON         PTCLDY    73  64  73 NW8       29.66R
ORTONVILLE     LGT RAIN  72  64  78 CALM      29.65S
MADISON        LGT RAIN  72  66  83 W7        29.67F
WILLMAR        FAIR      75  63  64 NW10      29.66R
$$
MNZ033>034-036-042>043-049>051-058-059-010100-
   Central Minnesota

CITY           SKY/WX    TMP DP  RH WIND       PRES   REMARKS
ST CLOUD       CLOUDY    70  61  73 NW13      29.64R
6HR MIN TEMP:  71; 6HR MAX TEMP:  83; 6HR PCP:  0.16;

SAUK CENTRE    FAIR      73  63  68 W10       29.64
PAYNESVILLE    MOCLDY    71  64  78 W6        29.64F
AITKIN         TSTM      72  64  78 NW6G20    29.63R
PINE RIVER     MOCLDY    72  63  73 W6        29.68S
BRAINERD       MOCLDY    72  66  81 W10       29.64S
STAPLES        MOCLDY    70  63  78 W5        29.64F
LONG PRAIRIE   FAIR      72  63  73 W7        29.63F
LITTLE FALLS   MOCLDY    70  64  83 W6        29.64S
LITCHFIELD     CLOUDY    70  68  94 SE6G18    29.66R VSB 3/4
BUFFALO        PTCLDY    78  67  68 S6        29.65S
MAPLE LAKE     PTCLDY    77  70  79 S5        29.64F
$$
MNZ037-044-045-052-053-010100-
   East Central Minnesota

CITY           SKY/WX    TMP DP  RH WIND       PRES   REMARKS
PRINCETON      PTCLDY    79  68  69 S9        29.64R
MORA           MOCLDY    75  64  69 SW9G16    29.65S
CAMBRIDGE      MOCLDY    81  66  61 S9        29.63R
RUSH CITY      LGT RAIN  77  68  73 S6        29.64F
MOOSE LAKE     MOCLDY    77  70  78 CALM      29.60F
HINCKLEY       FAIR      79  70  73 S10       29.63F
CLOQUET        MOCLDY    68  64  88 E6        29.64F
MCGREGOR       PTCLDY    73  68  83 S8        29.63F THUNDER
$$
MNZ071>073-080-081-089-090-097-098-010100-
   Southwest Minnesota

CITY           SKY/WX    TMP DP  RH WIND       PRES   REMARKS
MONTEVIDEO     PTCLDY    73  64  73 NW6       29.68R
GRANITE FALLS  PTCLDY    73  66  78 W8        29.68S
CANBY          LGT RAIN  69  64  84 W3        29.69F
MARSHALL       PTSUNNY   73  63  68 NW12      29.66F
REDWOOD FALLS  LGT RAIN  70  68  93 E3        29.63F
OLIVIA         PTCLDY    75  64  69 NW14G20   29.63F
PIPESTONE      CLOUDY    72  61  68 CALM      29.70F
WINDOM         CLOUDY    75  68  78 S7        29.69F
WORTHINGTON    CLOUDY    66  63  88 W15G31    29.76R
JACKSON        MOCLDY    72  64  78 S7        29.69F
TRACY          CLOUDY    74  66  74 NW3       29.67F
SLAYTON        CLOUDY    67  64  89 CALM      29.72R
$$
MNZ065>067-074>077-082>085-091>093-010100-
   South Central Minnesota

CITY           SKY/WX    TMP DP  RH WIND       PRES   REMARKS
MANKATO        CLOUDY    73  63  68 S13G22    29.69F
NEW ULM        MOCLDY    75  70  83 S9        29.64F
ST JAMES       CLOUDY    73  66  78 S12       29.68F
FAIRMONT       CLOUDY    68  61  77 SE8       29.68F
GLENCOE        PTCLDY    77  67  70 S10       29.63F
FARIBAULT      CLOUDY    81  63  54 S10G21    29.70S
OWATONNA       CLOUDY    75  63  64 S21G31    29.72S
WASECA         CLOUDY    72  61  68 SW15G24   29.74S
ALBERT LEA     TSTM      72  63  73 W8G17     29.74F
$$
MNZ078>079-086>088-094>096-010100-
   Southeast Minnesota

CITY           SKY/WX    TMP DP  RH WIND       PRES   REMARKS
ROCHESTER      MOCLDY    79  69  71 S16G29    29.76R
6HR MIN TEMP:  79; 6HR MAX TEMP:  84;

RED WING       CLOUDY    82  70  65 S8        29.66F
STANTON        LGT RAIN  78  67  70 SW12G20   29.67S
DODGE CENTER   CLOUDY    79  64  61 SW21G38   29.74R
WINONA         MOCLDY    79  70  73 S6        29.72F
AUSTIN         LGT RAIN  75  63  64 SW10G20   29.76R
PRESTON        MOCLDY    72  65  77 S10       29.78R
$$
ABBREVIATIONS USED IN REMARKS
   TC - TEMPERATURES IN CELSIUS
  WCI - WIND CHILL INDEX
   HX - HEAT INDEX
  VSB - VISIBILITY
$$


USA.gov is the U.S. government's official web portal to all federal, state and local government web resources and services.